Granbury, TX

4:56 PM CST on November 23, 2017 (GMT -0600)
Granbury

Weather History for KGDJ - January, 2013

Change the Weather History Date:

Sunday, January 13, 2013

  Actual Average (KSEP) Record (KSEP)
Temperature  
Mean Temperature 36 °F -  
Max Temperature 42 °F 50 °F 78 °F (1947)
Min Temperature 30 °F 27 °F 7 °F (1963)
Degree Days  
Heating Degree Days 29    
Moisture  
Dew Point 23 °F    
Average Humidity 61    
Maximum Humidity 75    
Minimum Humidity 46    
Precipitation  
Precipitation 0.00 in - - ()
Sea Level Pressure  
Sea Level Pressure 30.19 in    
Wind  
Wind Speed 13 mph (NW)    
Max Wind Speed 20 mph    
Max Gust Speed 26 mph    
Visibility 10 miles    
Events      
Averages and records for this station are not official NWS values.
T = Trace of Precipitation, MM = Missing Value Source: NWS Daily Summary

Daily Weather History Graph

Daily Weather History Graph

Search for Another Location

Airport or City:

Trip Planner

Search our weather history database for the weather conditions in past years. The results will help you decide how hot, cold, wet, or windy it might be!

Date:

Astronomy

Jan. 13, 2013 Rise Set
Actual Time 7:33 AM CST 5:47 PM CST
Civil Twilight 7:06 AM CST 6:13 PM CST
Nautical Twilight 6:36 AM CST 6:44 PM CST
Astronomical Twilight 6:06 AM CST 7:13 PM CST
Moon 8:42 AM CST (1/13) 8:15 PM CST (1/13)
Length of Visible Light 11h 07m
Length of Day
10h 13m
Waxing Crescent, 5% of the Moon is Illuminated
Jan 13
Waxing Crescent
Jan 18
First Quarter
Jan 26
Full
Feb 3
Last Quarter
Feb 10
New

Hourly Weather History & Observations

Time (CST) Temp. Windchill Dew Point Humidity Pressure Visibility Wind Dir Wind Speed Gust Speed Precip Events Conditions
12:15 AM 35.6 °F 26.6 °F 28.4 °F 75% 29.99 in 10.0 mi NW 13.8 mph 19.6 mph N/A   Overcast
12:35 AM 35.6 °F 26.2 °F 28.4 °F 75% 30.01 in 10.0 mi NW 15.0 mph 18.4 mph N/A   Overcast
12:55 AM 35.6 °F 25.9 °F 28.4 °F 75% 30.04 in 10.0 mi NW 16.1 mph 20.7 mph N/A   Overcast
1:15 AM 35.6 °F 25.9 °F 26.6 °F 70% 30.03 in 10.0 mi NNW 16.1 mph 19.6 mph N/A   Overcast
1:35 AM 35.6 °F 27.5 °F 26.6 °F 70% 30.05 in 10.0 mi NW 11.5 mph 20.7 mph N/A   Overcast
1:55 AM 35.6 °F 26.6 °F 26.6 °F 70% 30.06 in 10.0 mi NW 13.8 mph 19.6 mph N/A   Overcast
2:15 AM 35.6 °F 27.1 °F 26.6 °F 70% 30.06 in 10.0 mi NW 12.7 mph - N/A   Overcast
2:35 AM 35.6 °F 26.2 °F 26.6 °F 70% 30.07 in 10.0 mi NW 15.0 mph 20.7 mph N/A   Overcast
2:55 AM 33.8 °F 24.3 °F 24.8 °F 70% 30.07 in 10.0 mi NW 13.8 mph - N/A   Overcast
3:15 AM 33.8 °F 23.5 °F 23.0 °F 65% 30.07 in 10.0 mi NW 16.1 mph 23.0 mph N/A   Overcast
3:35 AM 33.8 °F 23.5 °F 23.0 °F 65% 30.08 in 10.0 mi NW 16.1 mph 21.9 mph N/A   Overcast
3:55 AM 33.8 °F 24.3 °F 23.0 °F 65% 30.08 in 10.0 mi NW 13.8 mph 21.9 mph N/A   Overcast
4:15 AM 33.8 °F 23.9 °F 23.0 °F 65% 30.08 in 10.0 mi NW 15.0 mph 19.6 mph N/A   Overcast
4:35 AM 33.8 °F 24.3 °F 23.0 °F 65% 30.09 in 10.0 mi NW 13.8 mph 23.0 mph N/A   Overcast
4:55 AM 33.8 °F 24.8 °F 23.0 °F 65% 30.09 in 10.0 mi NW 12.7 mph 20.7 mph N/A   Overcast
5:15 AM 33.8 °F 24.8 °F 23.0 °F 65% 30.10 in 10.0 mi NW 12.7 mph - N/A   Overcast
5:35 AM 33.8 °F 24.3 °F 23.0 °F 65% 30.10 in 10.0 mi NW 13.8 mph 19.6 mph N/A   Overcast
5:55 AM 33.8 °F 25.3 °F 23.0 °F 65% 30.11 in 10.0 mi NW 11.5 mph 16.1 mph N/A   Overcast
6:35 AM 32.0 °F 23.6 °F 21.2 °F 64% 30.15 in 10.0 mi NW 10.4 mph - N/A   Mostly Cloudy
6:55 AM 32.0 °F 23.0 °F 21.2 °F 64% 30.17 in 10.0 mi NW 11.5 mph - N/A   Scattered Clouds
7:15 AM 32.0 °F 22.1 °F 21.2 °F 64% 30.17 in 10.0 mi NW 13.8 mph - N/A   Clear
7:35 AM 32.0 °F 21.6 °F 21.2 °F 64% 30.19 in 10.0 mi NW 15.0 mph - N/A   Clear
7:55 AM 32.0 °F 20.5 °F 21.2 °F 64% 30.20 in 10.0 mi NW 18.4 mph 23.0 mph N/A   Clear
8:15 AM 32.0 °F 22.5 °F 21.2 °F 64% 30.22 in 10.0 mi NW 12.7 mph 18.4 mph N/A   Clear
8:35 AM 32.0 °F 20.1 °F 21.2 °F 64% 30.23 in 10.0 mi NNW 19.6 mph 26.5 mph N/A   Clear
9:15 AM 32.0 °F 22.1 °F 21.2 °F 64% 30.25 in 10.0 mi NNW 13.8 mph 23.0 mph N/A   Clear
9:35 AM 32.0 °F 21.6 °F 21.2 °F 64% 30.26 in 10.0 mi NW 15.0 mph 24.2 mph N/A   Clear
9:55 AM 32.0 °F 20.1 °F 19.4 °F 60% 30.27 in 10.0 mi NW 19.6 mph 26.5 mph N/A   Clear
10:15 AM 32.0 °F 21.2 °F 21.2 °F 64% 30.28 in 10.0 mi NW 16.1 mph 21.9 mph N/A   Clear
10:35 AM 33.8 °F 24.3 °F 21.2 °F 60% 30.27 in 10.0 mi NNW 13.8 mph 19.6 mph N/A   Clear
11:15 AM 35.6 °F 25.9 °F 21.2 °F 56% 30.27 in 10.0 mi NNW 16.1 mph 21.9 mph N/A   Clear
11:55 AM 37.4 °F 28.2 °F 21.2 °F 52% 30.24 in 10.0 mi NW 16.1 mph - N/A   Clear
12:15 PM 37.4 °F 29.3 °F 23.0 °F 56% 30.23 in 10.0 mi NNW 12.7 mph 19.6 mph N/A   Clear
12:35 PM 39.2 °F 32.0 °F 23.0 °F 52% 30.22 in 10.0 mi NNW 11.5 mph 20.7 mph N/A   Clear
12:55 PM 39.2 °F 30.8 °F 23.0 °F 52% 30.21 in 10.0 mi NW 15.0 mph 20.7 mph N/A   Clear
1:15 PM 41.0 °F 34.7 °F 23.0 °F 49% 30.20 in 10.0 mi NW 10.4 mph 19.6 mph N/A   Clear
1:35 PM 41.0 °F 34.7 °F 23.0 °F 49% 30.20 in 10.0 mi NNW 10.4 mph 17.3 mph N/A   Clear
1:55 PM 41.0 °F 35.2 °F 23.0 °F 49% 30.19 in 10.0 mi NNW 9.2 mph 18.4 mph N/A   Clear
2:15 PM 42.8 °F 37.0 °F 23.0 °F 46% 30.19 in 10.0 mi NW 10.4 mph 18.4 mph N/A   Clear
2:35 PM 42.8 °F 36.6 °F 24.8 °F 49% 30.19 in 10.0 mi NW 11.5 mph 18.4 mph N/A   Clear
2:55 PM 42.8 °F 35.8 °F 23.0 °F 46% 30.19 in 10.0 mi North 13.8 mph 18.4 mph N/A   Clear
3:15 PM 42.8 °F 36.2 °F 23.0 °F 46% 30.20 in 10.0 mi NNW 12.7 mph - N/A   Clear
3:35 PM 42.8 °F 36.6 °F 23.0 °F 46% 30.20 in 10.0 mi North 11.5 mph - N/A   Clear
3:55 PM 42.8 °F 36.2 °F 23.0 °F 46% 30.20 in 10.0 mi NNW 12.7 mph 18.4 mph N/A   Clear
4:15 PM 42.8 °F 36.2 °F 23.0 °F 46% 30.20 in 10.0 mi NNW 12.7 mph - N/A   Clear
4:35 PM 42.8 °F 36.6 °F 23.0 °F 46% 30.21 in 10.0 mi North 11.5 mph - N/A   Clear
4:55 PM 42.8 °F 38.0 °F 23.0 °F 46% 30.21 in 10.0 mi NNW 8.1 mph - N/A   Clear
5:15 PM 41.0 °F 34.7 °F 23.0 °F 49% 30.21 in 10.0 mi NNW 10.4 mph - N/A   Clear
5:35 PM 41.0 °F 35.8 °F 23.0 °F 49% 30.22 in 10.0 mi North 8.1 mph - N/A   Clear
5:55 PM 37.4 °F 30.8 °F 23.0 °F 56% 30.22 in 10.0 mi NNW 9.2 mph - N/A   Clear
6:35 PM 37.4 °F 32.1 °F 23.0 °F 56% 30.23 in 10.0 mi NNW 6.9 mph - N/A   Clear
6:55 PM 35.6 °F 32.8 °F 24.8 °F 65% 30.23 in 10.0 mi NNW 3.5 mph - N/A   Clear
7:15 PM 35.6 °F 32.8 °F 23.0 °F 60% 30.24 in 10.0 mi NNW 3.5 mph - N/A   Clear
7:35 PM 33.8 °F 30.8 °F 23.0 °F 65% 30.24 in 10.0 mi NNW 3.5 mph - N/A   Clear
7:55 PM 33.8 °F 30.8 °F 23.0 °F 65% 30.24 in 10.0 mi NNW 3.5 mph - N/A   Clear
8:15 PM 33.8 °F 30.8 °F 23.0 °F 65% 30.25 in 10.0 mi NW 3.5 mph - N/A   Clear
8:35 PM 32.0 °F 26.4 °F 23.0 °F 69% 30.25 in 10.0 mi NNW 5.8 mph - N/A   Clear
8:55 PM 32.0 °F 28.7 °F 23.0 °F 69% 30.26 in 10.0 mi NW 3.5 mph - N/A   Clear
9:15 PM 32.0 °F 27.5 °F 23.0 °F 69% 30.26 in 10.0 mi WNW 4.6 mph - N/A   Clear
9:35 PM 32.0 °F 27.5 °F 23.0 °F 69% 30.27 in 10.0 mi WNW 4.6 mph - N/A   Clear
9:55 PM 32.0 °F 26.4 °F 23.0 °F 69% 30.27 in 10.0 mi WNW 5.8 mph - N/A   Clear
10:15 PM 30.2 °F 25.4 °F 23.0 °F 75% 30.28 in 10.0 mi WNW 4.6 mph - N/A   Clear
10:35 PM 32.0 °F 25.6 °F 23.0 °F 69% 30.29 in 10.0 mi NW 6.9 mph - N/A   Clear
10:55 PM 32.0 °F 26.4 °F 23.0 °F 69% 30.29 in 10.0 mi NNW 5.8 mph - N/A   Clear
11:15 PM 32.0 °F 25.6 °F 23.0 °F 69% 30.30 in 10.0 mi NNW 6.9 mph - N/A   Clear
11:35 PM 32.0 °F 25.6 °F 23.0 °F 69% 30.30 in 10.0 mi NNW 6.9 mph - N/A   Clear
11:55 PM 32.0 °F 26.4 °F 23.0 °F 69% 30.30 in 10.0 mi NNW 5.8 mph - N/A   Clear